Location: Heathcote
(40.9845°N, 73.7746°W)
Time: 04:11:05
(UTC+00:00)

Cosmos 1346 Rocket - Pass Details

Date: 29 October 2020
Orbit: 535 x 543 km, 81.2° (Epoch: 23 November)

Event Time Altitude Azimuth Distance (km) Brightness Sun altitude
Rises 22:16:50 0° 8° (N) 2,712 6.1 -5.0°
Reaches altitude 10° 22:19:44 10° 31° (NNE) 1,815 5.1 -5.5°
Maximum altitude 22:22:13 16° 70° (ENE) 1,474 4.4 -6.0°
Drops below altitude 10° 22:24:42 10° 109° (ESE) 1,807 4.9 -6.4°
Sets 22:27:34 0° 131° (SE) 2,694 6.0 -7.0°
